Regional Weather Roundup
Issued by NWS

Home | Current Version | Previous Version | Text Only | Print | Product List | Glossary Off
Versions: 1 2 3 4 5 6 7 8 9 10 11 12 13 14 15 16 17 18 19 20 21 22 23 24 25 26 27 28 29 30 31 32 33 34 35 36 37 38 39 40 41 42 43 44 45 46 47 48 49 50

000
ASUS45 KBOI 161310
RWRID

IDAHO REGIONAL WEATHER ROUNDUP
NATIONAL WEATHER SERVICE BOISE ID
700 AM MDT WED AUG 16 2017

NOTE: "FAIR" INDICATES FEW OR NO CLOUDS BELOW 12000 FEET
WITH NO SIGNIFICANT WEATHER AND/OR OBSTRUCTIONS TO VISIBILITY

IDZ012-014-161400-
SOUTHWEST IDAHO


CITY           SKY/WX    TMP DP  RH WIND       PRES   REMARKS
BOISE          PTCLDY    60  37  42 S6        29.97R
CALDWELL       PTCLDY    56  45  66 CALM      29.97R
MOUNTAIN HOME  CLEAR     58  41  53 CALM      29.98R
$$

IDZ016-017-161400-
SOUTHCENTRAL IDAHO


CITY           SKY/WX    TMP DP  RH WIND       PRES   REMARKS
BURLEY         CLEAR     48  44  86 N3        30.03R
JEROME         CLEAR     53  41  63 E8        30.03R
TWIN FALLS     CLEAR     56  37  49 S8        30.03R
$$

IDZ019>023-161400-
SOUTHEAST IDAHO


CITY           SKY/WX    TMP DP  RH WIND       PRES   REMARKS
IDAHO FALLS    CLEAR     44  43  96 N3        30.08R
POCATELLO      CLEAR     43  38  82 W3        30.07R
REXBURG        CLEAR     45  42  89 NE3       30.09R
$$

IDZ006-010-011-018-031-032-161400-
CENTRAL IDAHO MOUNTAINS


CITY           SKY/WX    TMP DP  RH WIND       PRES   REMARKS
MCCALL         CLEAR     45  36  70 CALM      30.07R
HAILEY         PTCLDY    48  41  76 NW9       30.11S
STANLEY          N/A     33  28  81 CALM      30.20R
SALMON         PTCLDY    46  42  86 CALM      30.08R
CHALLIS        PTCLDY    48  38  68 CALM      30.11R
$$

IDZ002-004-006-007-026-161400-
NORTHERN IDAHO


CITY           SKY/WX    TMP DP  RH WIND       PRES   REMARKS
LEWISTON       CLEAR     56  37  49 S3        29.98R
LOWELL           N/A     51  43  74 CALM      30.06R
COEUR D`ALENE  CLEAR     56  46  69 S7        30.00R
MULLAN PASS    CLEAR     50  28  42 NW3       30.12R
$$



USA.gov is the U.S. government's official web portal to all federal, state and local government web resources and services.